Location: Ariel
(45.9570°N, 122.5700°W)
Time: 22:10:41
(UTC-07:00)

A-11 Canister half - Pass Details

Date: 27 August 2019
Orbit: 1514 x 1686 km, 47.2° (Epoch: 15 September)

Event Time Altitude Azimuth Distance (km) Brightness Sun altitude
Rises 23:11:13 0° 291° (WNW) 4,757 12.4 -28.1°
Reaches altitude 10° 23:14:18 10° 288° (WNW) 3,793 11.7 -28.4°
Maximum altitude 23:23:46 62° 211° (SSW) 1,802 9.1 -29.2°
Enters shadow 23:25:40 54° 170° (S) 1,933 9.1 -29.4°
